User: anonymous
Location: Hiram
(41.3130°N, 81.1440°W)
Time: 05:04:19
(UTC-04:00)
Language:

Iridium 62 - Orbit

View from above orbital plane
View from above orbital plane
View from above satellite
View from above satellite

Ground track
Ground track

The orbit data is extracted from the following two-line orbital elements,

1 25285U 98021A   14239.10487690  .00000192  00000-0  61419-4 0  8992
2 25285 086.3945 292.3888 0002432 110.7515 249.3941 14.34216464858097
Epoch (UTC): 27 August 2014 02:31:01
Eccentricity: 0.0002432
inclination: 86.3945°
perigee height: 776 km
apogee height: 779 km
right ascension of ascending node: 292.3888°
argument of perigee: 110.7515°
revolutions per day: 14.34216464
mean anomaly at epoch: 249.3941°
orbit number at epoch: 85809

The dashed part of the orbit path shows where the satellite is in the earth's shadow,  

DLR